Flag for Canada Weather past 2 weeks in Denare Beach, Saskatchewan, Canada

Now
64 °F

Clear.


Feels Like: 64 °F
Forecast: 62 / 85 °F
Wind: No wind

Location: The Pas

Current Time: Jul 31, 2014 at 4:49:41 AM

Latest Report: Jul 31, 2014 at 4:00 AM


Visibility: 15 mi

Pressure: 30.03 "Hg

Humidity: 88%

Dew point: 61 °F

Location of Denare BeachLocation

Historic Weather in Denare Beach — Graph

°F

Denare Beach temperature yesterday

Maximum temperature yesterday: 86 °F (at 4:00 PM)
Minimum temperature yesterday: 63 °F (at 5:00 AM)
Average temperature yesterday: 74 °F

Past Weeks' High & Low Weather Summary

 TemperatureHumidityPressure
High86 °F (Jul 30, 4:00 PM)100% (Jul 18, 2:00 PM)30.30 "Hg (Jul 18, 2:00 PM)
Low52 °F (Jul 19, 6:00 AM)32% (Jul 17, 6:00 PM)29.40 "Hg (Jul 18, 2:00 PM)
Average66 °F70%29.90 "Hg
* Reported Jul 16 3:00 AM — Jul 31 3:00 AM, Denare Beach, Weather by CustomWeather, © 2014

Note: Actual official high and low records may vary slightly from our data, if they occured in-between our weather recording intervals... More about our weather records

Advertising

Denare Beach weather history for previous 24 hours

 ConditionsComfort  
Time TempWeatherWind HumidityBarometerVisibility
3:00 AM
Jul 31
66 °FClear.No wind78%30.03 "Hg15 mi
2:00 AM64 °FClear.3 mph78%30.03 "Hg15 mi
1:00 AM68 °FClear.6 mph69%30.03 "Hg15 mi
12:00 AM68 °FPassing clouds.No wind73%30.03 "Hg15 mi
11:00 PM
Jul 30
68 °FOvercast.No wind78%30.03 "Hg15 mi
10:00 PM73 °FOvercast.3 mph65%30.03 "Hg15 mi
9:00 PM75 °FOvercast.5 mph65%30.03 "Hg15 mi
8:00 PM81 °FPassing clouds.5 mph51%30.03 "Hg15 mi
7:00 PM84 °FPassing clouds.6 mph37%30.03 "Hg15 mi
6:00 PM84 °FPassing clouds.2 mph35%30.03 "Hg15 mi
5:00 PM84 °FScattered clouds.5 mph37%30.05 "Hg15 mi
4:00 PM86 °FPassing clouds.5 mph33%30.05 "Hg15 mi
3:00 PM84 °FPassing clouds.5 mph35%30.05 "Hg15 mi
2:00 PM82 °FPassing clouds.6 mph37%30.06 "Hg15 mi
1:00 PM81 °FPassing clouds.2 mph45%30.07 "Hg15 mi
12:00 PM79 °FScattered clouds.3 mph48%30.08 "Hg15 mi
11:00 AM77 °FPassing clouds.3 mph51%30.08 "Hg15 mi
10:00 AM72 °FPassing clouds.3 mph65%30.08 "Hg15 mi
9:00 AM68 °FPassing clouds.3 mph73%30.09 "Hg15 mi
8:00 AM66 °FScattered clouds.3 mph78%30.09 "Hg15 mi
7:00 AM64 °FScattered clouds.3 mph83%30.08 "Hg15 mi
6:00 AM63 °FPassing clouds.3 mph83%30.07 "Hg15 mi
5:00 AM63 °FPassing clouds.3 mph88%30.07 "Hg15 mi
4:00 AM64 °FClear.5 mph83%30.06 "Hg15 mi
Weather by CustomWeather, © 2014

See weather overviewHow to use our weather pages